星链-30247 (STARLINK-30247 )

导读

STARLINK-30247是美国SpaceX星链互联网卫星星座中的一员,于2023年8月17日发射升空,归属SpaceX星链项目,星链旨在通过近地轨道卫星星座提供全球范围高速互联网接入服务,该卫星入轨后参与星座组网,服务地面用户的通信与互联网接入需求,目前已在轨运行约两年半。

Basic Information
目录编号:
57644
目录名称:
STARLINK-30247
国际标识:
2023-122N
轨道中心:
EARTH
卫星名称:
星链-30247
卫星全名:
星链-30247 (STARLINK-30247 )
卫星状态:
在轨 (已飞行1121 天)
发射日期:
2023-08-17 UTC
国别 :
美国 (US)
星等 :
--
This satellite is enrolled in the Space Conjunction Data Service (SCDS) and the current flight risk assessment level is: High Risk
Orbit Information
数据来源 国际轨道数据 AOE轨道数据
星历时间 2026-09-11T08:30:27+0800
15小时前
查看轨道信息
2026-09-05T23:00:00+0800
6天前
查看轨道信息
半长轴 6861.218km 6861.19km
偏心率 0.0001025 0.0000022
轨道倾角 43.003° 43.003°
近地点辐角 271.837° 195.085°
升交点赤经 125.633° 156.107°
平近点角 88.237° 335.319°
近地点 482.377km 483.037km
远地点 483.785km 483.069km
周期 94.267分钟 94.267分钟
每日圈数 15.275694 15.275788
Detailed Information
固有亮度:
5
最大亮度:
0.3
卫星平台:
Starlink v2.0 mini
覆盖范围:
全球
运营商:
太空探索技术公司
运营商所在国:
美国
制造商(研发单位):
太空探索技术公司
制造商所在国:
美国
使用方式:
暂无
Satellite Introduction
星链(Starlink)计划是由太空探索技术公司(SpaceX)提出的一个巨型低轨卫星互联网星座项目,计划在2019年至2024年间在太空搭建由约1.2万颗卫星组成的“星链”网络,其中1584颗将部署在地球上空550千米处的近地轨道,并从2020年开始工作。该卫星仍在工作。
2D Orbit Map
3D Orbit Map
Orbit Altitude Analysis Chart
Orbit Inclination Analysis Chart
Orbit Comprehensive Analysis Chart
View Comprehensive Chart
Miss Distance Evolution Trend with All Objects
Collision Probability Evolution Trend with All Objects